Regional Weather Roundup
Issued by NWS Sioux Falls, SD

Home | Current Version | Previous Version | Graphics & Text | Print | Product List | Glossary Off
Versions: 1 2 3 4 5 6 7 8 9 10 11 12 13 14 15 16 17 18 19 20 21 22 23 24 25 26 27 28 29 30 31 32 33 34 35 36 37 38 39 40 41 42 43 44 45 46 47 48 49 50

000
ASUS43 KFSD 161202
RWRFSD

WEATHER ROUNDUP FOR SE SOUTH DAKOTA/SW MINNESOTA/NW IOWA
NATIONAL WEATHER SERVICE SIOUX FALLS SD
700 AM CDT TUE SEP 16 2014

NOTE: "FAIR" INDICATES FEW OR NO CLOUDS BELOW 12,000 FEET WITH NO
SIGNIFICANT WEATHER AND OR OBSTRUCTIONS TO VISIBILITY.


SDZ038>040-050-052>070-161300-
SOUTHEAST SOUTH DAKOTA

CITY           SKY/WX    TMP DP  RH WIND       PRES   REMARKS
CHAMBERLAIN    CLEAR     42  40  94 SE7       30.09F
6HR MIN TEMP:  42; 6HR MAX TEMP:  45;

HURON          CLEAR     39  37  92 SE7       30.14F
6HR MIN TEMP:  39; 6HR MAX TEMP:  44;

MADISON        FAIR      39  39 100 S7        30.18S
MITCHELL       CLEAR     41  39  93 S7        30.16F
6HR MIN TEMP:  41; 6HR MAX TEMP:  46;

SIOUX FALLS    CLEAR     40  38  93 CALM      30.19F
6HR MIN TEMP:  39; 6HR MAX TEMP:  44;

WINNER         FAIR      52  42  69 S18       30.07F
YANKTON        CLEAR     39  37  93 E3        30.20S
$$

MNZ071-072-080-081-089-090-097-098-161300-
SOUTHWEST MINNESOTA

CITY           SKY/WX    TMP DP  RH WIND       PRES   REMARKS
FAIRMONT       CLEAR     39  36  87 SW6       30.21S
JACKSON        CLEAR     39  36  87 SW3       30.21S
LUVERNE        FOG       34  34 100 CALM      30.21S VSB 1/4
MARSHALL       CLEAR     45  37  76 SW8       30.17S
6HR MIN TEMP:  39; 6HR MAX TEMP:  45;

MONTEVIDEO     CLEAR     39  36  87 SW5       30.17F
PIPESTONE      CLEAR     39  36  87 S5        30.18F
REDWOOD FALLS  CLEAR     41  37  86 SW7       30.19S
TRACY          CLEAR     43  40  89 SW7       30.19S
WINDOM         CLEAR     37  37 100 CALM      30.21S
WORTHINGTON    CLEAR     37  36  93 SW6       30.22S
$$

IAZ001>003-012>014-020>022-031-032-NEZ013-014-SDZ071-161300-
NORTHWEST IOWA

CITY           SKY/WX    TMP DP  RH WIND       PRES   REMARKS
CHEROKEE       CLEAR     35  35 100 CALM      30.23S
DENISON        CLEAR     37  37 100 CALM      30.23S
ESTHERVILLE    CLEAR     39  37  92 SW6       30.21F
LE MARS          N/A     36  36 100 CALM      30.22F
ORANGE CITY    CLEAR     43  37  81 S3        30.21F
SHELDON        CLEAR     36  36 100 CALM      30.20F
SIOUX CITY     FOG       38  37  97 E5        30.23S VSB 1/2
6HR MIN TEMP:  38; 6HR MAX TEMP:  43;

SPENCER        CLEAR     36  34  92 CALM      30.22S
6HR MIN TEMP:  35; 6HR MAX TEMP:  39;

STORM LAKE     CLEAR     41  41 100 S6        30.23S
$$

ABBREVIATIONS USED IN REMARKS
   TC - TEMPERATURE IN CELSIUS
  WCI - WIND CHILL INDEX
   HX - HEAT INDEX
  VSB - VISIBILITY




USA.gov is the U.S. government's official web portal to all federal, state and local government web resources and services.